Time,TemperatureF,DewpointF,PressureIn,WindDirection,WindDirectionDegrees,WindSpeedMPH,WindSpeedGustMPH,Humidity,HourlyPrecipIn,Conditions,Clouds,dailyrainin,SoftwareType,DateUTC
2013-02-06 00:12:00,50.7,50.0,30.05,SSE,159,2.0,3.0,97,0.00,,,0.00,weatherlink.com 1.10,2013-02-06 06:12:00,
2013-02-06 00:27:00,50.8,50.0,30.05,SE,141,1.0,3.0,97,0.00,,,0.00,weatherlink.com 1.10,2013-02-06 06:27:00,
2013-02-06 00:42:00,50.9,50.0,30.05,SE,141,0.0,3.0,97,0.00,,,0.00,weatherlink.com 1.10,2013-02-06 06:42:00,
2013-02-06 00:57:00,51.0,50.0,30.05,SE,137,1.0,2.0,97,0.00,,,0.00,weatherlink.com 1.10,2013-02-06 06:57:00,
2013-02-06 01:12:00,51.5,51.0,30.05,SE,130,3.0,3.0,97,0.00,,,0.00,weatherlink.com 1.10,2013-02-06 07:12:00,
2013-02-06 01:27:00,51.6,51.0,30.04,ESE,113,0.0,2.0,97,0.00,,,0.00,weatherlink.com 1.10,2013-02-06 07:27:00,
2013-02-06 01:42:00,51.7,51.0,30.04,East,87,0.0,1.0,97,0.01,,,0.01,weatherlink.com 1.10,2013-02-06 07:42:00,
2013-02-06 01:57:00,51.7,51.0,30.03,East,88,0.0,1.0,97,0.01,,,0.01,weatherlink.com 1.10,2013-02-06 07:57:00,
2013-02-06 02:12:00,51.6,51.0,30.02,NE,46,0.0,1.0,97,0.01,,,0.01,weatherlink.com 1.10,2013-02-06 08:12:00,
2013-02-06 02:27:00,51.1,50.0,30.02,NE,41,1.0,2.0,97,0.01,,,0.01,weatherlink.com 1.10,2013-02-06 08:27:00,
2013-02-06 02:42:00,50.7,50.0,30.02,ENE,68,0.0,1.0,97,0.00,,,0.01,weatherlink.com 1.10,2013-02-06 08:42:00,
2013-02-06 02:57:00,50.7,50.0,30.02,SE,134,0.0,1.0,97,0.00,,,0.01,weatherlink.com 1.10,2013-02-06 08:57:00,
2013-02-06 03:12:00,50.7,50.0,30.02,ESE,120,0.0,1.0,97,0.00,,,0.01,weatherlink.com 1.10,2013-02-06 09:12:00,
2013-02-06 03:27:00,50.7,50.0,30.02,SE,124,0.0,2.0,97,0.00,,,0.01,weatherlink.com 1.10,2013-02-06 09:27:00,
2013-02-06 03:42:00,50.9,50.0,30.02,East,101,0.0,3.0,97,0.00,,,0.01,weatherlink.com 1.10,2013-02-06 09:42:00,
2013-02-06 03:57:00,51.2,50.0,30.02,SSE,149,0.0,4.0,97,0.00,,,0.01,weatherlink.com 1.10,2013-02-06 09:57:00,
2013-02-06 04:12:00,51.7,51.0,30.02,SE,138,1.0,5.0,97,0.00,,,0.01,weatherlink.com 1.10,2013-02-06 10:12:00,
2013-02-06 04:27:00,51.9,51.0,30.02,ESE,104,0.0,5.0,97,0.00,,,0.01,weatherlink.com 1.10,2013-02-06 10:27:00,
2013-02-06 04:42:00,52.0,51.0,30.02,SE,138,1.0,5.0,97,0.00,,,0.01,weatherlink.com 1.10,2013-02-06 10:42:00,
2013-02-06 04:57:00,51.9,51.0,30.03,ESE,113,3.0,7.0,97,0.00,,,0.01,weatherlink.com 1.10,2013-02-06 10:57:00,
2013-02-06 05:12:00,51.9,51.0,30.03,SE,141,1.0,4.0,97,0.00,,,0.01,weatherlink.com 1.10,2013-02-06 11:12:00,
2013-02-06 05:27:00,51.9,51.0,30.02,SE,132,2.0,4.0,97,0.00,,,0.01,weatherlink.com 1.10,2013-02-06 11:27:00,
2013-02-06 05:42:00,51.9,51.0,30.02,SE,142,0.0,4.0,97,0.00,,,0.01,weatherlink.com 1.10,2013-02-06 11:42:00,
2013-02-06 05:57:00,52.0,52.0,30.02,SE,143,2.0,5.0,98,0.00,,,0.01,weatherlink.com 1.10,2013-02-06 11:57:00,
2013-02-06 06:12:00,52.0,51.0,30.02,ENE,74,2.0,4.0,97,0.00,,,0.01,weatherlink.com 1.10,2013-02-06 12:12:00,
2013-02-06 06:27:00,51.8,51.0,30.01,ESE,120,0.0,7.0,97,0.00,,,0.01,weatherlink.com 1.10,2013-02-06 12:27:00,
2013-02-06 06:42:00,51.7,51.0,30.01,ESE,103,2.0,4.0,97,0.00,,,0.01,weatherlink.com 1.10,2013-02-06 12:42:00,
2013-02-06 06:57:00,51.7,51.0,30.02,SE,124,1.0,6.0,98,0.00,,,0.01,weatherlink.com 1.10,2013-02-06 12:57:00,
2013-02-06 07:12:00,50.9,50.0,30.02,East,101,0.0,2.0,97,0.00,,,0.01,weatherlink.com 1.10,2013-02-06 13:12:00,
2013-02-06 07:27:00,50.5,50.0,30.02,East,87,0.0,2.0,97,0.00,,,0.01,weatherlink.com 1.10,2013-02-06 13:27:00,
2013-02-06 07:42:00,50.3,50.0,30.02,East,84,0.0,0.0,97,0.00,,,0.01,weatherlink.com 1.10,2013-02-06 13:42:00,
2013-02-06 07:57:00,50.3,50.0,30.02,NE,49,0.0,2.0,97,0.00,,,0.01,weatherlink.com 1.10,2013-02-06 13:57:00,
2013-02-06 08:12:00,50.3,50.0,30.02,East,97,1.0,3.0,98,0.00,,,0.01,weatherlink.com 1.10,2013-02-06 14:12:00,
2013-02-06 08:27:00,50.2,50.0,30.03,ESE,121,0.0,2.0,98,0.00,,,0.01,weatherlink.com 1.10,2013-02-06 14:27:00,
2013-02-06 08:42:00,50.2,50.0,30.03,East,86,0.0,1.0,98,0.00,,,0.01,weatherlink.com 1.10,2013-02-06 14:42:00,
2013-02-06 08:57:00,50.2,50.0,30.03,ESE,110,0.0,1.0,98,0.00,,,0.01,weatherlink.com 1.10,2013-02-06 14:57:00,
2013-02-06 09:12:00,50.5,50.0,30.03,SE,124,2.0,2.0,98,0.00,,,0.01,weatherlink.com 1.10,2013-02-06 15:12:00,
2013-02-06 09:27:00,50.4,50.0,30.03,ENE,75,1.0,3.0,98,0.00,,,0.01,weatherlink.com 1.10,2013-02-06 15:27:00,
2013-02-06 09:42:00,50.6,50.0,30.03,East,99,0.0,3.0,98,0.00,,,0.01,weatherlink.com 1.10,2013-02-06 15:42:00,
2013-02-06 09:57:00,51.4,51.0,30.03,SE,138,0.0,4.0,98,0.00,,,0.01,weatherlink.com 1.10,2013-02-06 15:57:00,
2013-02-06 10:12:00,51.4,51.0,30.03,East,90,0.0,5.0,98,0.00,,,0.01,weatherlink.com 1.10,2013-02-06 16:12:00,
2013-02-06 10:27:00,51.8,51.0,30.04,East,90,2.0,6.0,98,0.00,,,0.01,weatherlink.com 1.10,2013-02-06 16:27:00,
2013-02-06 10:42:00,52.3,52.0,30.03,SE,141,0.0,3.0,98,0.01,,,0.02,weatherlink.com 1.10,2013-02-06 16:42:00,
2013-02-06 10:57:00,53.3,53.0,30.02,SSE,153,1.0,5.0,98,0.01,,,0.02,weatherlink.com 1.10,2013-02-06 16:57:00,
2013-02-06 11:12:00,54.2,54.0,30.02,SE,134,4.0,6.0,98,0.01,,,0.02,weatherlink.com 1.10,2013-02-06 17:12:00,
2013-02-06 11:27:00,55.2,55.0,30.01,SE,139,1.0,9.0,98,0.01,,,0.02,weatherlink.com 1.10,2013-02-06 17:27:00,
2013-02-06 11:42:00,55.8,55.0,30.00,SE,132,8.0,8.0,98,0.00,,,0.02,weatherlink.com 1.10,2013-02-06 17:42:00,
2013-02-06 11:57:00,56.4,56.0,29.99,SSE,150,10.0,10.0,98,0.00,,,0.02,weatherlink.com 1.10,2013-02-06 17:57:00,
2013-02-06 12:13:00,56.6,56.0,29.98,SSE,165,4.0,8.0,98,0.00,,,0.02,weatherlink.com 1.10,2013-02-06 18:13:00,
2013-02-06 12:28:00,56.9,56.0,29.98,SE,143,4.0,7.0,98,0.00,,,0.02,weatherlink.com 1.10,2013-02-06 18:28:00,
2013-02-06 12:43:00,56.9,56.0,29.97,ESE,117,3.0,11.0,98,0.00,,,0.02,weatherlink.com 1.10,2013-02-06 18:43:00,
2013-02-06 12:58:00,57.0,57.0,29.95,ESE,116,4.0,7.0,98,0.00,,,0.02,weatherlink.com 1.10,2013-02-06 18:58:00,
2013-02-06 13:13:00,57.1,57.0,29.95,South,179,6.0,9.0,98,0.00,,,0.02,weatherlink.com 1.10,2013-02-06 19:13:00,
2013-02-06 13:28:00,57.5,57.0,29.94,South,191,3.0,11.0,98,0.00,,,0.02,weatherlink.com 1.10,2013-02-06 19:28:00,
2013-02-06 13:43:00,58.0,58.0,29.93,SE,135,1.0,8.0,98,0.00,,,0.02,weatherlink.com 1.10,2013-02-06 19:43:00,
2013-02-06 13:58:00,58.5,58.0,29.93,ESE,122,5.0,8.0,98,0.00,,,0.02,weatherlink.com 1.10,2013-02-06 19:58:00,
2013-02-06 14:13:00,59.3,59.0,29.92,ESE,111,2.0,6.0,98,0.00,,,0.02,weatherlink.com 1.10,2013-02-06 20:13:00,
2013-02-06 14:28:00,59.6,59.0,29.91,SE,127,4.0,5.0,98,0.00,,,0.02,weatherlink.com 1.10,2013-02-06 20:28:00,
2013-02-06 14:43:00,60.1,60.0,29.91,ESE,120,1.0,5.0,98,0.00,,,0.02,weatherlink.com 1.10,2013-02-06 20:43:00,
2013-02-06 14:58:00,61.6,61.0,29.90,ENE,60,3.0,9.0,98,0.00,,,0.02,weatherlink.com 1.10,2013-02-06 20:58:00,
2013-02-06 15:13:00,61.1,61.0,29.89,ENE,60,3.0,6.0,98,0.00,,,0.02,weatherlink.com 1.10,2013-02-06 21:13:00,
2013-02-06 15:29:00,59.7,59.0,29.89,East,100,3.0,7.0,97,0.00,,,0.02,weatherlink.com 1.10,2013-02-06 21:29:00,
2013-02-06 15:43:00,59.0,58.0,29.89,ENE,77,2.0,7.0,97,0.00,,,0.02,weatherlink.com 1.10,2013-02-06 21:43:00,
2013-02-06 15:58:00,58.7,58.0,29.88,ESE,120,4.0,12.0,97,0.00,,,0.02,weatherlink.com 1.10,2013-02-06 21:58:00,
2013-02-06 16:13:00,58.2,57.0,29.89,SE,132,2.0,14.0,97,0.00,,,0.02,weatherlink.com 1.10,2013-02-06 22:13:00,
2013-02-06 16:28:00,57.4,57.0,29.88,SE,132,5.0,13.0,97,0.00,,,0.02,weatherlink.com 1.10,2013-02-06 22:28:00,
2013-02-06 16:43:00,57.2,56.0,29.88,SE,138,7.0,10.0,97,0.00,,,0.02,weatherlink.com 1.10,2013-02-06 22:43:00,
2013-02-06 16:58:00,56.9,56.0,29.88,ESE,104,5.0,9.0,97,0.00,,,0.02,weatherlink.com 1.10,2013-02-06 22:58:00,
2013-02-06 17:13:00,56.9,56.0,29.87,ESE,120,4.0,12.0,97,0.00,,,0.02,weatherlink.com 1.10,2013-02-06 23:13:00,
2013-02-06 17:28:00,56.8,56.0,29.87,ESE,110,2.0,14.0,97,0.00,,,0.02,weatherlink.com 1.10,2013-02-06 23:28:00,
2013-02-06 17:43:00,56.8,56.0,29.88,SE,141,6.0,10.0,96,0.00,,,0.02,weatherlink.com 1.10,2013-02-06 23:43:00,
2013-02-06 17:58:00,56.9,56.0,29.88,SSE,148,5.0,11.0,95,0.00,,,0.02,weatherlink.com 1.10,2013-02-06 23:58:00,
2013-02-06 18:13:00,56.9,55.0,29.87,SE,125,1.0,6.0,94,0.00,,,0.02,weatherlink.com 1.10,2013-02-07 00:13:00,
2013-02-06 18:28:00,56.5,55.0,29.88,SE,130,2.0,5.0,93,0.00,,,0.02,weatherlink.com 1.10,2013-02-07 00:28:00,
2013-02-06 18:43:00,56.4,55.0,29.88,ESE,105,5.0,9.0,93,0.00,,,0.02,weatherlink.com 1.10,2013-02-07 00:43:00,
2013-02-06 18:58:00,56.4,55.0,29.88,SE,132,4.0,10.0,93,0.00,,,0.02,weatherlink.com 1.10,2013-02-07 00:58:00,
2013-02-06 19:13:00,56.5,55.0,29.88,East,94,4.0,8.0,93,0.00,,,0.02,weatherlink.com 1.10,2013-02-07 01:13:00,
2013-02-06 19:28:00,56.8,55.0,29.89,SE,128,5.0,10.0,93,0.00,,,0.02,weatherlink.com 1.10,2013-02-07 01:28:00,
2013-02-06 19:43:00,56.9,55.0,29.89,ESE,119,4.0,12.0,92,0.00,,,0.02,weatherlink.com 1.10,2013-02-07 01:43:00,
2013-02-06 19:58:00,56.8,55.0,29.90,ESE,122,4.0,18.0,92,0.00,,,0.02,weatherlink.com 1.10,2013-02-07 01:58:00,
2013-02-06 20:13:00,56.4,54.0,29.90,SE,138,3.0,13.0,92,0.00,,,0.02,weatherlink.com 1.10,2013-02-07 02:13:00,
2013-02-06 20:28:00,56.2,54.0,29.91,SSE,160,4.0,11.0,93,0.00,,,0.02,weatherlink.com 1.10,2013-02-07 02:28:00,
2013-02-06 20:43:00,55.9,54.0,29.91,ESE,120,6.0,12.0,93,0.00,,,0.02,weatherlink.com 1.10,2013-02-07 02:43:00,
2013-02-06 20:58:00,55.8,54.0,29.91,ESE,110,6.0,12.0,94,0.00,,,0.02,weatherlink.com 1.10,2013-02-07 02:58:00,
2013-02-06 21:13:00,55.7,54.0,29.91,SE,131,6.0,13.0,94,0.00,,,0.02,weatherlink.com 1.10,2013-02-07 03:13:00,
2013-02-06 21:29:00,55.5,54.0,29.91,WSW,242,3.0,12.0,94,0.00,,,0.02,weatherlink.com 1.10,2013-02-07 03:29:00,
2013-02-06 21:44:00,55.4,54.0,29.91,SSE,154,2.0,15.0,94,0.00,,,0.02,weatherlink.com 1.10,2013-02-07 03:44:00,
2013-02-06 21:59:00,55.3,54.0,29.91,ESE,108,5.0,13.0,94,0.00,,,0.02,weatherlink.com 1.10,2013-02-07 03:59:00,
2013-02-06 22:14:00,55.2,54.0,29.91,SSE,160,6.0,14.0,94,0.00,,,0.02,weatherlink.com 1.10,2013-02-07 04:14:00,
2013-02-06 22:29:00,55.1,54.0,29.91,SE,137,7.0,14.0,95,0.00,,,0.02,weatherlink.com 1.10,2013-02-07 04:29:00,
2013-02-06 22:44:00,54.9,54.0,29.91,East,90,3.0,9.0,95,0.00,,,0.02,weatherlink.com 1.10,2013-02-07 04:44:00,
2013-02-06 22:59:00,54.9,54.0,29.91,SE,131,6.0,10.0,95,0.00,,,0.02,weatherlink.com 1.10,2013-02-07 04:59:00,
2013-02-06 23:14:00,54.8,54.0,29.90,SE,146,7.0,9.0,96,0.00,,,0.02,weatherlink.com 1.10,2013-02-07 05:14:00,
2013-02-06 23:29:00,54.9,54.0,29.90,ESE,115,11.0,12.0,96,0.00,,,0.02,weatherlink.com 1.10,2013-02-07 05:29:00,
2013-02-06 23:44:00,54.9,54.0,29.90,SE,143,3.0,12.0,96,0.00,,,0.02,weatherlink.com 1.10,2013-02-07 05:44:00,
2013-02-06 23:59:00,54.9,54.0,29.90,ESE,120,3.0,8.0,96,0.00,,,0.02,weatherlink.com 1.10,2013-02-07 05:59:00,